Location: Durfort
(45.2333°N, 2.2000°E)
Time: 06:27:11
(UTC+00:00)

Daily predictions for brighter satellites

Satellite Brightness Start Highest point End
(mag) Time Altitude Azimuth Time Altitude Azimuth Time Altitude Azimuth
ATLAS 3B R/B 3.1 17:01:18 10° NW 17:08:16 78° WSW 17:15:31 10° SSE
Cosmos 2228 3.4 17:04:54 10° N 17:08:58 42° ENE 17:13:03 10° SSE
Cosmos 1400 Rocket 3.8 17:05:15 10° NNW 17:09:17 54° W 17:13:14 10° S
BREEZE-M DEB (TANK) 3.5 17:06:38 10° W 17:09:31 35° SSW 17:12:25 10° SE
Meteor 2-5 Rocket 3.7 17:07:29 10° S 17:12:58 65° E 17:18:28 10° NNE
CZ-4C R/B 3.2 17:08:34 10° WSW 17:13:22 41° NW 17:19:09 10° NNE
SJ 16-02 3.1 17:13:48 10° SE 17:15:59 14° E 17:18:11 10° ENE
CZ-3B R/B 3.0 17:14:29 10° NNW 17:16:16 18° NNE 17:19:12 10° ENE
CORIOLIS 4.2 17:14:25 10° SSE 17:19:49 81° ENE 17:25:14 10° NNW
Cosmos 2263 Rocket 2.3 17:15:01 10° SSW 17:20:42 84° WNW 17:26:25 10° NNE
Cosmos 783 Rocket 4.5 17:16:40 10° NNW 17:21:56 81° ENE 17:27:11 10° SSE
Envisat 4.5 17:18:25 10° S 17:23:13 42° W 17:28:03 10° NNW
NOAA 11 4.2 17:19:47 10° SSE 17:25:17 82° ENE 17:30:49 10° NNW
Cosmos 1354 Rocket 4.2 17:20:00 10° SSW 17:25:19 80° WNW 17:30:42 10° NNE
Cosmos 1455 3.8 17:23:53 10° NNE 17:26:15 16° ENE 17:28:37 10° ESE
Cosmos 2058 Rocket 3.8 17:24:19 10° N 17:28:23 32° ENE 17:32:25 10° SE
Cosmos 1300 2.6 17:26:54 10° N 17:30:44 84° E 17:34:33 10° S
X-37B 2.6 17:28:38 10° SSW 17:30:53 18° SSE 17:33:10 10° ESE
Landsat 5 4.3 17:31:45 10° N 17:35:34 47° WNW 17:39:16 10° SW
ARGOS 4.3 17:33:46 10° ESE 17:37:40 21° ENE 17:41:34 10° NNE
Okean 1-7 Rocket 4.3 17:36:11 10° SSE 17:40:17 34° E 17:44:24 10° NNE
CREW DRAGON DEMO-1 DEB 4.1 17:37:53 10° NW 17:40:21 25° N 17:41:52 17° NE
Lacrosse 5 2.4 17:35:56 10° NW 17:40:42 40° NNE 17:45:00 12° E
ISS -2.4 17:40:14 10° SSW 17:43:06 27° SE 17:45:00 16° E
Cosmos 1943 3.8 17:37:40 10° NNW 17:43:16 62° WSW 17:48:49 10° S
Cosmos 1726 Rocket 3.5 17:39:39 10° N 17:44:01 72° E 17:48:24 10° SSE
Cosmos 1939 Rocket 2.8 17:40:19 10° SSE 17:44:26 74° ENE 17:48:32 10° N
ERS-2 3.0 17:42:03 11° NE 17:45:07 28° E 17:48:16 10° SSE
EXPRESS MD2 4.3 17:37:10 10° WNW 17:46:21 79° NNE 17:50:21 12° ESE
CZ-2C R/B 4.2 17:45:49 15° ENE 17:46:38 15° E 17:49:43 10° ESE
Meteor 1-24 Rocket 3.7 17:41:44 10° SSW 17:47:06 84° W 17:52:26 10° N
COSMOS 2455 2.9 17:42:07 10° SSW 17:48:02 61° ESE 17:53:59 10° NE
Cosmos 1844 4.4 17:48:18 10° SSE 17:53:15 32° ESE 17:57:11 15° NE
Cosmos 1833 Rocket 4.4 17:51:32 10° N 17:54:09 13° NE 17:54:41 13° NE
IRS-1C Rocket 4.1 17:50:09 10° SSE 17:55:18 59° ENE 18:00:28 10° N
Cosmos 1315 Rocket 4.0 17:52:42 10° NNW 17:56:31 46° W 18:00:22 10° S
CZ-4 R/B 1.8 17:52:57 10° SE 17:56:47 40° ENE 18:00:35 10° N
Feng Yun 1-1 Rocket 4.1 17:52:34 10° SSE 17:57:58 82° ENE 18:03:32 10° NNW
COSMO-SKYMED 1 2.5 17:58:20 10° NNE 18:02:42 78° ESE 18:07:02 10° S
Cosmos 2279 Rocket 4.3 17:57:37 10° NNW 18:03:53 73° W 18:10:06 10° S
USA 267 4.4 18:04:12 18° E 18:07:01 24° SE 18:12:05 10° S
CZ-4 R/B 4.3 18:06:04 10° SSE 18:10:12 83° ENE 18:14:22 10° NNW
CZ-4B R/B 1.9 18:09:28 10° N 18:12:49 59° WNW 18:16:05 10° SSW
Okean-O 2.7 18:08:34 10° SSE 18:12:53 55° ENE 18:17:15 10° N
CZ-2C R/B 3.1 18:09:05 10° SSE 18:14:21 88° ENE 18:19:58 10° NNW
Cosmos 1844 Rocket 2.7 18:09:32 10° S 18:15:05 60° ESE 18:19:24 17° NE
Okean O Rocket 3.7 18:12:02 10° SSW 18:15:57 30° W 18:19:53 10° NW
OE (NEXTSAT) 4.2 18:13:19 10° WSW 18:16:46 85° SSE 18:17:46 44° E
H-2A R/B 2.0 18:12:00 10° SSE 18:16:51 55° ENE 18:21:50 10° N
Cosmos 923 Rocket 4.2 18:11:46 10° N 18:16:57 47° ENE 18:22:03 10° SE
Meteor 1-21 Rocket 4.3 18:12:38 10° S 18:17:57 52° E 18:23:21 10° NNE
Aureole 2 Rocket 1.9 18:15:33 10° SSW 18:18:32 83° ESE 18:19:29 41° NNE
ATLAS 2AS CENTAUR R/B 4.3 18:11:47 10° W 18:18:41 31° NNW 18:25:26 10° NNE
Cosmos 1689 Rocket 2.3 18:20:00 45° SE 18:20:00 45° SE 18:22:21 10° S
Cosmos 158 Rocket 4.1 18:17:07 10° NNW 18:22:23 57° ENE 18:27:41 10° SE
Cosmos 1898 Rocket 4.3 18:19:07 10° SSE 18:23:37 29° E 18:23:42 29° E
Cosmos 1680 Rocket 3.8 18:19:20 10° N 18:24:19 41° ENE 18:26:36 27° ESE
CZ-2D R/B 4.3 18:26:46 10° S 18:30:30 48° W 18:34:15 10° NNW
Cosmos 1602 Rocket 3.8 18:27:24 10° SSE 18:31:30 44° E 18:31:34 44° E
Cosmos 1818 3.5 18:26:33 10° SSW 18:31:58 79° ESE 18:34:52 29° NE
TELKOM 3 4.1 18:30:23 10° WSW 18:32:11 45° W 18:32:11 45° W
SAR-Lupe-4 3.4 18:31:28 33° NNE 18:32:59 86° ESE 18:36:33 10° SSW
Meteor 2-10 Rocket 4.1 18:28:24 10° NNW 18:33:51 60° W 18:39:02 10° S
YAOGAN 1 2.5 18:30:30 10° SSE 18:34:49 88° ENE 18:39:11 10° NNW
Cosmos 489 Rocket 4.4 18:29:43 10° NNW 18:36:08 84° ENE 18:42:28 10° SSE
CSL-04 Rocket 3.6 18:33:24 10° SSE 18:38:41 60° ENE 18:44:05 10° N
Helios 1A Rocket 2.8 18:35:37 10° SSE 18:39:44 81° ENE 18:43:54 10° NNW
USA 234 3.9 18:40:20 31° NE 18:42:30 39° NNE 18:48:29 10° NW
SAR-Lupe-1 4.2 18:42:35 37° N 18:43:51 71° WNW 18:47:24 10° SSW
Cosmos 1092 Rocket 3.8 18:38:49 10° S 18:44:59 70° E 18:51:07 10° NNE
ATLAS 5 CENTAUR R/B 3.7 18:42:00 10° W 18:45:08 20° NNW 18:47:37 14° N
MOS 1 Rocket 4.0 18:42:42 10° N 18:46:52 48° WNW 18:50:58 10° SW
Iridium 4 Rocket 3.6 18:41:26 10° N 18:47:07 63° E 18:52:20 10° SSE
Meteor 2-1 Rocket 4.4 18:42:42 10° NNW 18:48:16 72° W 18:53:44 10° S
Cosmos 1812 Rocket 4.0 18:45:42 10° N 18:48:54 44° NNE 18:48:54 44° NNE
Cosmos 2344 4.4 18:44:40 10° NW 18:53:36 57° NE 18:59:35 31° ESE
SJ-11-01 4.4 18:49:17 10° S 18:53:58 73° WSW 18:58:41 10° NNW
SJ 16-02 1.7 18:49:39 10° SSW 18:54:00 62° WNW 18:56:00 31° N
Aureole 3 4.1 18:54:23 10° NNW 18:57:43 41° W 19:00:38 10° SSW
Cosmos 2112 Rocket 3.8 18:56:36 10° NNW 19:01:53 73° ENE 19:02:18 69° ESE
Cosmos 1455 3.5 18:58:28 10° NNW 19:02:03 39° W 19:05:38 10° SSW
CZ-4C R/B 4.4 19:00:01 10° NW 19:03:46 17° NNW 19:06:30 14° NNE
X-37B 2.8 19:03:59 10° WSW 19:05:31 25° WSW 19:05:31 25° WSW
Cosmos 1703 3.9 19:03:51 10° SSW 19:07:03 52° SW 19:07:03 52° SW
COSMOS 2406 4.1 19:11:01 10° NNW 19:14:49 36° N 19:14:49 36° N
ARGOS 3.5 19:12:09 10° S 19:17:27 62° W 19:22:47 10° NNW
ISS -1.4 19:16:26 10° WSW 19:17:58 24° W 19:17:58 24° W
Cosmos 44 3.7 19:15:06 10° SSW 19:18:46 55° SSW 19:18:46 55° SSW
Lacrosse 5 2.4 19:18:55 10° WNW 19:23:49 52° SW 19:24:16 50° SSW
CZ-2C R/B 2.7 19:27:19 80° NNW 19:27:33 83° WNW 19:33:09 10° SSW
CZ-4 R/B 4.1 19:29:02 10° SW 19:31:57 19° W 19:34:50 10° NW
NOSS 3-1 (C) 3.9 19:25:18 10° NW 19:32:51 85° NE 19:34:39 60° SE
COSMOS 2455 4.4 19:29:08 10° WSW 19:34:22 30° NW 19:37:13 21° N
Cosmos 990 Rocket 4.5 19:31:29 10° SW 19:36:25 57° WNW 19:36:25 57° WNW
Cosmos 1553 Rocket 4.2 19:31:01 10° N 19:36:14 61° N 19:36:14 61° N
Cosmos 1833 Rocket 4.0 19:33:45 10° NNW 19:36:25 28° N 19:36:25 28° N
Cosmos 2026 Rocket 4.4 19:33:29 10° SSW 19:39:28 60° WNW 19:45:37 10° N
Cosmos 2082 Rocket 4.1 19:36:12 10° NNW 19:37:48 18° N 19:37:48 18° N
USA 229 DEB 3.8 19:42:29 10° NW 19:49:18 77° N 19:49:18 77° N
USA 229 3.8 19:42:35 10° NW 19:49:21 75° N 19:49:21 75° N
USA 267 3.3 19:51:34 68° SSW 19:51:34 68° SSW 19:57:11 10° SW
H-2A R/B 4.5 19:53:09 10° SW 19:56:40 19° W 20:00:15 10° NW
NOSS 3-1 (A) 4.1 19:57:53 10° NW 20:04:26 72° NNW 20:04:26 72° NNW
USA 234 4.2 20:27:40 40° NW 20:27:40 40° NW 20:31:39 10° NW
